Time,TemperatureF,DewpointF,PressureIn,WindDirection,WindDirectionDegrees,WindSpeedMPH,WindSpeedGustMPH,Humidity,HourlyPrecipIn,Conditions,Clouds,dailyrainin,SolarRadiationWatts/m^2,SoftwareType,DateUTC
2013-04-10 00:02:00,52.0,-1.0,-100.00,North,357,38.0,47.0,11,0.00,,,0.00,0.000000,,2013-04-10 07:02:00,
2013-04-10 00:12:00,52.0,-1.0,-100.00,North,357,38.0,47.0,11,0.00,,,0.00,0.000000,,2013-04-10 07:12:00,
2013-04-10 00:22:00,52.0,-1.0,-100.00,North,357,38.0,47.0,11,0.00,,,0.00,0.000000,,2013-04-10 07:22:00,
2013-04-10 00:52:00,52.0,1.0,-100.00,North,357,45.0,61.0,12,0.00,,,0.00,0.000000,,2013-04-10 07:52:00,
2013-04-10 01:02:00,52.0,1.0,-100.00,North,357,45.0,61.0,12,0.00,,,0.00,0.000000,,2013-04-10 08:02:00,
2013-04-10 01:12:00,52.0,1.0,-100.00,North,357,45.0,61.0,12,0.00,,,0.00,0.000000,,2013-04-10 08:12:00,
2013-04-10 01:22:00,52.0,1.0,-100.00,North,357,45.0,61.0,12,0.00,,,0.00,0.000000,,2013-04-10 08:22:00,
2013-04-10 01:52:00,50.0,-2.0,-100.00,SE,128,41.0,55.0,11,0.00,,,0.00,0.000000,,2013-04-10 08:52:00,
2013-04-10 02:02:00,50.0,-2.0,-100.00,SE,128,41.0,55.0,11,0.00,,,0.00,0.000000,,2013-04-10 09:02:00,
2013-04-10 02:12:00,50.0,-2.0,-100.00,SE,128,41.0,55.0,11,0.00,,,0.00,0.000000,,2013-04-10 09:12:00,
2013-04-10 02:22:00,50.0,-2.0,-100.00,SE,128,41.0,55.0,11,0.00,,,0.00,0.000000,,2013-04-10 09:22:00,
2013-04-10 02:53:00,48.0,-2.0,-100.00,North,0,29.0,46.0,12,0.00,,,0.00,0.000000,,2013-04-10 09:53:00,
2013-04-10 03:02:00,48.0,-2.0,-100.00,North,0,29.0,46.0,12,0.00,,,0.00,0.000000,,2013-04-10 10:02:00,
2013-04-10 03:12:00,48.0,-2.0,-100.00,North,0,29.0,46.0,12,0.00,,,0.00,0.000000,,2013-04-10 10:12:00,
2013-04-10 03:23:00,48.0,-2.0,-100.00,North,0,29.0,46.0,12,0.00,,,0.00,0.000000,,2013-04-10 10:23:00,
2013-04-10 03:52:00,48.0,0.0,-100.00,NNW,348,22.0,41.0,13,0.00,,,0.00,0.000000,,2013-04-10 10:52:00,
2013-04-10 04:02:00,48.0,0.0,-100.00,NNW,348,22.0,41.0,13,0.00,,,0.00,0.000000,,2013-04-10 11:02:00,
2013-04-10 04:12:00,48.0,0.0,-100.00,NNW,348,22.0,41.0,13,0.00,,,0.00,0.000000,,2013-04-10 11:12:00,
2013-04-10 04:22:00,48.0,0.0,-100.00,NNW,348,22.0,41.0,13,0.00,,,0.00,0.000000,,2013-04-10 11:22:00,
2013-04-10 06:53:00,47.0,0.0,-100.00,North,349,13.0,31.0,14,-99.99,,,0.00,0.000000,,2013-04-10 13:53:00,
2013-04-10 07:02:00,47.0,0.0,-100.00,North,349,13.0,31.0,14,-99.99,,,0.00,0.000000,,2013-04-10 14:02:00,
2013-04-10 07:12:00,47.0,0.0,-100.00,North,349,13.0,31.0,14,-99.99,,,0.00,0.000000,,2013-04-10 14:12:00,
2013-04-10 07:21:00,47.0,0.0,-100.00,North,349,13.0,31.0,14,-99.99,,,0.00,0.000000,,2013-04-10 14:21:00,
2013-04-10 07:52:00,50.0,-1.0,-100.00,North,352,21.0,25.0,12,0.00,,,0.00,84.000000,,2013-04-10 14:52:00,
2013-04-10 08:02:00,50.0,-1.0,-100.00,North,352,21.0,25.0,12,0.00,,,0.00,84.000000,,2013-04-10 15:02:00,
2013-04-10 08:12:00,50.0,-1.0,-100.00,North,352,21.0,25.0,12,0.00,,,0.00,84.000000,,2013-04-10 15:12:00,
2013-04-10 08:22:00,50.0,-1.0,-100.00,North,352,21.0,25.0,12,0.00,,,0.00,84.000000,,2013-04-10 15:22:00,
2013-04-10 08:52:00,53.0,0.0,-100.00,North,356,21.0,28.0,11,0.00,,,0.00,332.000000,,2013-04-10 15:52:00,
2013-04-10 09:02:00,53.0,0.0,-100.00,North,356,21.0,28.0,11,0.00,,,0.00,332.000000,,2013-04-10 16:02:00,
2013-04-10 09:12:00,53.0,0.0,-100.00,North,356,21.0,28.0,11,0.00,,,0.00,332.000000,,2013-04-10 16:12:00,
2013-04-10 09:23:00,53.0,0.0,-100.00,North,356,21.0,28.0,11,0.00,,,0.00,332.000000,,2013-04-10 16:23:00,
2013-04-10 09:53:00,57.0,-6.0,-100.00,North,1,21.0,31.0,7,0.00,,,0.00,594.000000,,2013-04-10 16:53:00,
2013-04-10 10:52:00,59.0,-5.0,-100.00,NNE,15,14.0,25.0,7,0.00,,,0.00,829.000000,,2013-04-10 17:52:00,
2013-04-10 11:52:00,62.0,-10.0,-100.00,North,352,13.0,19.0,5,0.00,,,0.00,1016.000000,,2013-04-10 18:52:00,
2013-04-10 12:53:00,64.0,-8.0,-100.00,North,5,9.0,20.0,5,0.00,,,-99.99,1140.000000,,2013-04-10 19:53:00,
2013-04-10 13:52:00,68.0,-5.0,-100.00,North,2,12.0,21.0,5,0.00,,,0.00,1178.000000,,2013-04-10 20:52:00,
2013-04-10 14:02:00,68.0,-5.0,-100.00,North,2,12.0,21.0,5,0.00,,,0.00,1178.000000,,2013-04-10 21:02:00,
2013-04-10 14:12:00,68.0,-5.0,-100.00,North,2,12.0,21.0,5,0.00,,,0.00,1178.000000,,2013-04-10 21:12:00,
2013-04-10 14:53:00,69.0,-5.0,-100.00,NNW,340,12.0,21.0,5,0.00,,,0.00,1138.000000,,2013-04-10 21:53:00,
2013-04-10 15:03:00,69.0,-5.0,-100.00,NNW,340,12.0,21.0,5,0.00,,,0.00,1138.000000,,2013-04-10 22:03:00,
2013-04-10 15:53:00,74.0,-1.0,-100.00,NNW,347,6.0,21.0,5,0.00,,,0.00,1022.000000,,2013-04-10 22:53:00,
2013-04-10 16:02:00,74.0,-1.0,-100.00,NNW,347,6.0,21.0,5,0.00,,,0.00,1022.000000,,2013-04-10 23:02:00,
2013-04-10 16:12:00,74.0,-1.0,-100.00,NNW,347,6.0,21.0,5,0.00,,,0.00,1022.000000,,2013-04-10 23:12:00,
2013-04-10 16:22:00,74.0,-1.0,-100.00,NNW,347,6.0,21.0,5,0.00,,,0.00,1022.000000,,2013-04-10 23:22:00,
2013-04-10 16:53:00,75.0,-11.0,-100.00,NW,316,4.0,17.0,3,0.00,,,0.00,838.000000,,2013-04-10 23:53:00,
2013-04-10 17:02:00,75.0,-11.0,-100.00,NW,316,4.0,17.0,3,0.00,,,0.00,838.000000,,2013-04-11 00:02:00,
2013-04-10 17:53:00,71.0,-8.0,-100.00,SSW,210,12.0,20.0,4,0.00,,,0.00,527.000000,,2013-04-11 00:53:00,
2013-04-10 18:52:00,68.0,2.0,-100.00,SW,223,14.0,23.0,7,0.00,,,0.00,308.000000,,2013-04-11 01:52:00,
2013-04-10 19:02:00,68.0,2.0,-100.00,SW,223,14.0,23.0,7,0.00,,,0.00,308.000000,,2013-04-11 02:02:00,
2013-04-10 19:53:00,65.0,11.0,-100.00,SSW,200,13.0,19.0,12,0.00,,,0.00,21.000000,,2013-04-11 02:53:00,
2013-04-10 20:02:00,65.0,11.0,-100.00,SSW,200,13.0,19.0,12,0.00,,,0.00,21.000000,,2013-04-11 03:02:00,
2013-04-10 20:12:00,65.0,11.0,-100.00,SSW,200,13.0,19.0,12,0.00,,,0.00,21.000000,,2013-04-11 03:12:00,
2013-04-10 20:22:00,65.0,11.0,-100.00,SSW,200,13.0,19.0,12,0.00,,,0.00,21.000000,,2013-04-11 03:22:00,
2013-04-10 20:53:00,60.0,15.0,-100.00,SSW,204,11.0,19.0,17,0.00,,,0.00,0.000000,,2013-04-11 03:53:00,
2013-04-10 21:03:00,60.0,15.0,-100.00,SSW,204,11.0,19.0,17,0.00,,,0.00,0.000000,,2013-04-11 04:03:00,
2013-04-10 21:12:00,60.0,15.0,-100.00,SSW,204,11.0,19.0,17,0.00,,,0.00,0.000000,,2013-04-11 04:12:00,
2013-04-10 21:22:00,60.0,15.0,-100.00,SSW,204,11.0,19.0,17,0.00,,,0.00,0.000000,,2013-04-11 04:22:00,
2013-04-10 21:53:00,58.0,12.0,-100.00,SSW,203,14.0,20.0,16,0.00,,,0.00,0.000000,,2013-04-11 04:53:00,
2013-04-10 22:02:00,58.0,12.0,-100.00,SSW,203,14.0,20.0,16,0.00,,,0.00,0.000000,,2013-04-11 05:02:00,
2013-04-10 22:12:00,58.0,12.0,-100.00,SSW,203,14.0,20.0,16,0.00,,,0.00,0.000000,,2013-04-11 05:12:00,
2013-04-10 22:22:00,58.0,12.0,-100.00,SSW,203,14.0,20.0,16,0.00,,,0.00,0.000000,,2013-04-11 05:22:00,
2013-04-10 22:52:00,59.0,10.0,-100.00,SSW,206,15.0,20.0,14,0.00,,,0.00,0.000000,,2013-04-11 05:52:00,
2013-04-10 23:02:00,59.0,10.0,-100.00,SSW,206,15.0,20.0,14,0.00,,,0.00,0.000000,,2013-04-11 06:02:00,
2013-04-10 23:12:00,59.0,10.0,-100.00,SSW,206,15.0,20.0,14,0.00,,,0.00,0.000000,,2013-04-11 06:12:00,
2013-04-10 23:22:00,59.0,10.0,-100.00,SSW,206,15.0,20.0,14,0.00,,,0.00,0.000000,,2013-04-11 06:22:00,
2013-04-10 23:52:00,59.0,14.0,-100.00,West,276,2.0,22.0,17,0.00,,,0.00,0.000000,,2013-04-11 06:52:00,